Overview Statistics Trail Chart Weather Telemetry Raw packets
 

This is the latest recevied weather packets stored in our database for station/object KC5DAQ-26. If no packets are shown the sender has not sent any weather packets the latest 10 day(s).

<< 356 357 358 359 360 361 362 >>
Time Temp. Humidity Pressure Rain* Wind** Luminosity Snow
1788197402 31.67° C 75% 1019.6 hPa 0 mm - 230 W/m² -
1788197342 31.67° C 72% 1019.6 hPa 0 mm - 206 W/m² -
1788197283 32.22° C 72% 1019.6 hPa 0 mm - 197 W/m² -
1788197223 32.22° C 73% 1019.6 hPa 0 mm - 179 W/m² -
1788197162 32.22° C 72% 1019.6 hPa 0 mm - 172 W/m² -
1788197102 32.22° C 70% 1019.7 hPa 0 mm - 167 W/m² -
1788197043 32.22° C 71% 1019.6 hPa 0 mm - 160 W/m² -
1788196982 32.22° C 70% 1019.7 hPa 0 mm - 157 W/m² -
1788196940 32.22° C 71% 1019.8 hPa 0 mm - 155 W/m² -
1788196864 32.22° C 71% 1019.8 hPa 0 mm - 157 W/m² -
1788196801 32.22° C 71% 1019.7 hPa 0 mm - 160 W/m² -
1788196742 32.22° C 70% 1019.8 hPa 0 mm - 164 W/m² -
1788196683 32.22° C 70% 1019.8 hPa 0 mm - 167 W/m² -
1788196622 32.78° C 70% 1019.8 hPa 0 mm - 176 W/m² -
1788196561 32.78° C 70% 1019.8 hPa 0 mm - 185 W/m² -
1788196500 32.78° C 70% 1019.7 hPa 0 mm - 222 W/m² -
1788196437 32.78° C 70% 1019.7 hPa 0 mm - 236 W/m² -
1788196376 32.78° C 68% 1019.8 hPa 0 mm - 244 W/m² -
1788196315 32.78° C 68% 1019.8 hPa 0 mm - 255 W/m² -
1788196252 32.78° C 70% 1019.9 hPa 0 mm - 264 W/m² -
1788196191 32.22° C 71% 1019.9 hPa 0 mm - 280 W/m² -
1788196150 32.22° C 70% 1019.8 hPa 0 mm - 276 W/m² -
1788196068 32.22° C 70% 1019.9 hPa 0 mm - 269 W/m² -
1788196006 32.22° C 70% 1019.8 hPa 0 mm - 264 W/m² -
1788195946 32.22° C 70% 1019.9 hPa 0 mm - 248 W/m² -

* Rain latest hour (hover to see other rain measurements)
** Current wind speed in m/s (hover to see current wind gust speed)